This demonstration page uses our WeatherBlox Daily Observations layout. Learn more.

Left ArrowRight Arrow

36.17497, -115.13722

Hourly Observations for November 26, 2021

Temp ( °F °C ) Dew Point ( °F °C ) Humidity (%) Winds ( mph kmh ) Pressure ( in mb ) Visibility ( mi km ) Precip ( " mm )
12:53 am 00:53 Clear 46 7.8 4 -15.6 17 17 WNW 7 11 30.39 1029 10 16 0.00 0.00
1:53 am 01:53 Clear 45 7.2 8 -13.3 22 22 Calm 30.37 1029 10 16 0.00 0.00
2:53 am 02:53 Clear 43 6.1 7 -13.9 22 22 Calm 30.38 1029 10 16 0.00 0.00
3:53 am 03:53 Clear 41 5 7 -13.9 24 24 WNW 7 11 30.38 1029 10 16 0.00 0.00
4:53 am 04:53 Clear 41 5 8 -13.3 25 25 NW 5 7 30.37 1029 10 16 0.00 0.00
5:53 am 05:53 Clear 43 6.1 8 -13.3 24 24 WNW 8 13 30.37 1029 10 16 0.00 0.00
6:53 am 06:53 Sunny 41 5 6 -14.4 23 23 Calm 30.38 1029 10 16 0.00 0.00
7:53 am 07:53 Sunny 49 9.4 6 -14.4 17 17 N 5 7 30.38 1029 10 16 0.00 0.00
8:53 am 08:53 Sunny 53 11.7 5 -15 14 14 Calm 30.37 1029 10 16 0.00 0.00
9:53 am 09:53 Sunny 57 13.9 4 -15.6 11 11 Calm 30.36 1028 10 16 0.00 0.00
10:53 am 10:53 Sunny 60 15.6 6 -14.4 11 11 Calm 30.32 1027 10 16 0.00 0.00
11:53 am 11:53 Sunny 63 17.2 8 -13.3 11 11 Calm 30.27 1025 10 16 0.00 0.00
12:53 pm 12:53 Sunny 65 18.3 7 -13.9 10 10 Calm 30.23 1024 10 16 0.00 0.00
1:53 pm 13:53 Sunny 66 18.9 7 -13.9 10 10 Calm 30.19 1023 10 16 0.00 0.00
2:53 pm 14:53 Sunny 67 19.4 8 -13.3 10 10 Calm 30.17 1022 10 16 0.00 0.00
3:53 pm 15:53 Sunny 66 18.9 8 -13.3 10 10 Calm 30.16 1021 10 16 0.00 0.00
4:53 pm 16:53 Clear 63 17.2 10 -12.2 12 12 Calm 30.16 1021 10 16 0.00 0.00
5:53 pm 17:53 Clear 59 15 14 -10 17 17 W 5 7 30.17 1022 10 16 0.00 0.00
6:53 pm 18:53 Clear 54 12.2 15 -9.4 21 21 W 3 6 30.19 1022 10 16 0.00 0.00
7:53 pm 19:53 Clear 53 11.7 16 -8.9 23 23 WNW 5 7 30.18 1022 10 16 0.00 0.00
8:53 pm 20:53 Clear 52 11.1 14 -10 22 22 W 7 11 30.18 1022 10 16 0.00 0.00
9:53 pm 21:53 Clear 52 11.1 4 -15.6 14 14 NW 8 13 30.18 1022 10 16 0.00 0.00
10:53 pm 22:53 Clear 50 10 4 -15.6 15 15 NW 8 13 30.18 1022 10 16 0.00 0.00
11:53 pm 23:53 Clear 50 10 6 -14.4 17 17 NW 7 11 30.16 1022 10 16 0.00 0.00

Powered by AerisWeather